User: anonymous   Login
Location: Unspecified
(0.0000°N, 0.0000°E)
Time: 20:53:17
(UTC+00:00)
Language:

LO-87 - Orbit

View from above orbital plane
View from above orbital plane
View from above satellite
View from above satellite

Ground track
Ground track

The orbit data is extracted from the following two-line orbital elements,

1 41557U 16033B   20196.48993400  .00000815  00000-0  32426-4 0  9995
2 41557  97.4040 286.5390 0013320 359.7930   0.3302 15.28072995229904
Epoch (UTC): 14 July 2020 11:45:30
Eccentricity: 0.0013320
inclination: 97.4040°
perigee height: 472 km
apogee height: 491 km
right ascension of ascending node: 286.5390°
argument of perigee: 359.7930°
revolutions per day: 15.28072995
mean anomaly at epoch: 0.3302°
orbit number at epoch: 22990

The dashed part of the orbit path shows where the satellite is in the earth's shadow,  

DLR